Time,TemperatureF,DewpointF,PressureIn,WindDirection,WindDirectionDegrees,WindSpeedMPH,WindSpeedGustMPH,Humidity,HourlyPrecipIn,Conditions,Clouds,dailyrainin,SoftwareType,DateUTC
2013-10-05 00:07:00,77.9,70.0,29.77,SSE,163,10.0,13.0,77,0.00,,,0.00,weatherlink.com 1.10,2013-10-05 05:07:00,
2013-10-05 00:22:00,77.6,70.0,29.76,SE,144,14.0,14.0,78,0.00,,,0.00,weatherlink.com 1.10,2013-10-05 05:22:00,
2013-10-05 00:37:00,77.3,70.0,29.76,South,184,10.0,14.0,79,0.00,,,0.00,weatherlink.com 1.10,2013-10-05 05:37:00,
2013-10-05 00:52:00,76.9,70.0,29.76,SSE,167,5.0,14.0,80,0.00,,,0.00,weatherlink.com 1.10,2013-10-05 05:52:00,
2013-10-05 01:07:00,76.7,71.0,29.76,SSW,195,2.0,12.0,81,0.00,,,0.00,weatherlink.com 1.10,2013-10-05 06:07:00,
2013-10-05 01:22:00,76.5,70.0,29.77,South,186,3.0,9.0,81,0.00,,,0.00,weatherlink.com 1.10,2013-10-05 06:22:00,
2013-10-05 01:37:00,76.1,70.0,29.76,South,174,4.0,9.0,81,0.00,,,0.00,weatherlink.com 1.10,2013-10-05 06:37:00,
2013-10-05 01:52:00,76.2,70.0,29.77,South,177,3.0,11.0,81,0.00,,,0.00,weatherlink.com 1.10,2013-10-05 06:52:00,
2013-10-05 02:07:00,75.9,70.0,29.77,South,178,4.0,10.0,81,0.00,,,0.00,weatherlink.com 1.10,2013-10-05 07:07:00,
2013-10-05 02:22:00,75.8,70.0,29.77,South,179,2.0,11.0,81,0.00,,,0.00,weatherlink.com 1.10,2013-10-05 07:22:00,
2013-10-05 02:37:00,75.7,70.0,29.78,South,174,6.0,7.0,81,0.00,,,0.00,weatherlink.com 1.10,2013-10-05 07:37:00,
2013-10-05 02:52:00,75.7,70.0,29.77,South,178,5.0,9.0,81,0.00,,,0.00,weatherlink.com 1.10,2013-10-05 07:52:00,
2013-10-05 03:07:00,75.8,70.0,29.77,South,175,2.0,8.0,82,0.00,,,0.00,weatherlink.com 1.10,2013-10-05 08:07:00,
2013-10-05 03:22:00,75.8,70.0,29.77,South,180,3.0,8.0,82,0.00,,,0.00,weatherlink.com 1.10,2013-10-05 08:22:00,
2013-10-05 03:37:00,75.8,70.0,29.77,South,180,1.0,6.0,82,0.00,,,0.00,weatherlink.com 1.10,2013-10-05 08:37:00,
2013-10-05 03:52:00,75.8,70.0,29.77,South,180,3.0,7.0,82,0.00,,,0.00,weatherlink.com 1.10,2013-10-05 08:52:00,
2013-10-05 04:07:00,76.0,70.0,29.77,South,191,7.0,11.0,81,0.00,,,0.00,weatherlink.com 1.10,2013-10-05 09:07:00,
2013-10-05 04:22:00,76.2,70.0,29.77,SW,216,13.0,15.0,80,0.00,,,0.00,weatherlink.com 1.10,2013-10-05 09:22:00,
2013-10-05 04:37:00,76.2,70.0,29.77,SSW,194,7.0,12.0,80,0.00,,,0.00,weatherlink.com 1.10,2013-10-05 09:37:00,
2013-10-05 04:52:00,76.1,70.0,29.77,SSW,194,4.0,7.0,80,0.00,,,0.00,weatherlink.com 1.10,2013-10-05 09:52:00,
2013-10-05 05:07:00,76.0,70.0,29.77,SSW,194,3.0,6.0,81,0.00,,,0.00,weatherlink.com 1.10,2013-10-05 10:07:00,
2013-10-05 05:22:00,76.0,70.0,29.77,South,186,2.0,7.0,81,0.00,,,0.00,weatherlink.com 1.10,2013-10-05 10:22:00,
2013-10-05 05:37:00,76.0,70.0,29.77,South,179,7.0,7.0,81,0.00,,,0.00,weatherlink.com 1.10,2013-10-05 10:37:00,
2013-10-05 05:52:00,76.0,70.0,29.77,South,180,4.0,6.0,81,0.00,,,0.00,weatherlink.com 1.10,2013-10-05 10:52:00,
2013-10-05 06:07:00,76.1,70.0,29.77,South,190,3.0,11.0,80,0.00,,,0.00,weatherlink.com 1.10,2013-10-05 11:07:00,
2013-10-05 06:22:00,76.1,70.0,29.77,South,181,7.0,10.0,80,0.00,,,0.00,weatherlink.com 1.10,2013-10-05 11:22:00,
2013-10-05 06:37:00,76.1,70.0,29.78,SW,215,3.0,10.0,80,0.00,,,0.00,weatherlink.com 1.10,2013-10-05 11:37:00,
2013-10-05 06:52:00,76.0,69.0,29.79,SW,216,1.0,9.0,80,0.00,,,0.00,weatherlink.com 1.10,2013-10-05 11:52:00,
2013-10-05 07:07:00,75.9,69.0,29.79,SSW,194,7.0,11.0,79,0.00,,,0.00,weatherlink.com 1.10,2013-10-05 12:07:00,
2013-10-05 07:22:00,75.8,69.0,29.80,SW,229,7.0,12.0,79,0.00,,,0.00,weatherlink.com 1.10,2013-10-05 12:22:00,
2013-10-05 07:37:00,75.7,69.0,29.80,SSW,208,6.0,10.0,79,0.00,,,0.00,weatherlink.com 1.10,2013-10-05 12:37:00,
2013-10-05 07:52:00,75.3,69.0,29.80,SSW,195,4.0,6.0,80,0.00,,,0.00,weatherlink.com 1.10,2013-10-05 12:52:00,
2013-10-05 08:07:00,75.2,69.0,29.80,SSW,195,3.0,3.0,81,0.00,,,0.00,weatherlink.com 1.10,2013-10-05 13:07:00,
2013-10-05 08:22:00,75.1,69.0,29.81,SSW,194,0.0,3.0,81,0.00,,,0.00,weatherlink.com 1.10,2013-10-05 13:22:00,
2013-10-05 08:37:00,75.2,69.0,29.83,SSW,195,0.0,3.0,82,0.00,,,0.00,weatherlink.com 1.10,2013-10-05 13:37:00,
2013-10-05 08:52:00,75.0,69.0,29.84,SSW,195,0.0,2.0,82,0.00,,,0.00,weatherlink.com 1.10,2013-10-05 13:52:00,
2013-10-05 09:07:00,75.2,68.0,29.84,SSW,195,0.0,2.0,78,0.00,,,0.00,weatherlink.com 1.10,2013-10-05 14:07:00,
2013-10-05 09:22:00,75.6,68.0,29.86,SSW,195,0.0,1.0,78,0.00,,,0.00,weatherlink.com 1.10,2013-10-05 14:22:00,
2013-10-05 09:37:00,75.8,68.0,29.86,SSW,194,1.0,2.0,77,0.00,,,0.00,weatherlink.com 1.10,2013-10-05 14:37:00,
2013-10-05 09:52:00,76.1,68.0,29.87,SSW,195,2.0,3.0,77,0.00,,,0.00,weatherlink.com 1.10,2013-10-05 14:52:00,
2013-10-05 10:07:00,77.1,69.0,29.86,SSW,194,1.0,5.0,76,0.00,,,0.00,weatherlink.com 1.10,2013-10-05 15:07:00,
2013-10-05 10:22:00,78.0,69.0,29.87,South,184,6.0,7.0,74,0.00,,,0.00,weatherlink.com 1.10,2013-10-05 15:22:00,
2013-10-05 10:37:00,78.5,69.0,29.87,South,184,0.0,6.0,72,0.00,,,0.00,weatherlink.com 1.10,2013-10-05 15:37:00,
2013-10-05 10:52:00,79.7,70.0,29.88,South,185,2.0,6.0,72,0.00,,,0.00,weatherlink.com 1.10,2013-10-05 15:52:00,
2013-10-05 11:08:00,80.6,71.0,29.88,South,185,2.0,4.0,72,0.00,,,0.00,weatherlink.com 1.10,2013-10-05 16:08:00,
2013-10-05 11:23:00,80.6,70.0,29.88,South,185,0.0,4.0,69,0.00,,,0.00,weatherlink.com 1.10,2013-10-05 16:23:00,
2013-10-05 11:53:00,75.2,65.0,29.89,North,355,6.0,12.0,71,0.00,,,0.00,weatherlink.com 1.10,2013-10-05 16:53:00,
2013-10-05 12:08:00,73.2,62.0,29.89,North,355,4.0,13.0,69,0.00,,,0.00,weatherlink.com 1.10,2013-10-05 17:08:00,
2013-10-05 12:23:00,71.9,61.0,29.90,NNE,17,7.0,15.0,68,0.00,,,0.00,weatherlink.com 1.10,2013-10-05 17:23:00,
2013-10-05 12:38:00,73.3,60.0,29.91,North,9,8.0,17.0,63,0.00,,,0.00,weatherlink.com 1.10,2013-10-05 17:38:00,
2013-10-05 12:53:00,71.7,57.0,29.91,North,5,7.0,16.0,60,0.00,,,0.00,weatherlink.com 1.10,2013-10-05 17:53:00,
2013-10-05 13:08:00,70.8,56.0,29.91,North,355,6.0,18.0,60,0.00,,,0.00,weatherlink.com 1.10,2013-10-05 18:08:00,
2013-10-05 13:23:00,70.7,55.0,29.91,North,355,11.0,14.0,57,0.00,,,0.00,weatherlink.com 1.10,2013-10-05 18:23:00,
2013-10-05 13:38:00,70.3,55.0,29.90,NNE,22,8.0,13.0,59,0.00,,,0.00,weatherlink.com 1.10,2013-10-05 18:38:00,
2013-10-05 13:53:00,70.8,55.0,29.90,North,355,5.0,11.0,58,0.00,,,0.00,weatherlink.com 1.10,2013-10-05 18:53:00,
2013-10-05 14:08:00,71.0,55.0,29.90,North,9,5.0,13.0,57,0.00,,,0.00,weatherlink.com 1.10,2013-10-05 19:08:00,
2013-10-05 14:23:00,71.0,54.0,29.90,NNE,13,8.0,11.0,56,0.00,,,0.00,weatherlink.com 1.10,2013-10-05 19:23:00,
2013-10-05 14:38:00,71.0,54.0,29.90,NNE,15,4.0,12.0,56,0.00,,,0.00,weatherlink.com 1.10,2013-10-05 19:38:00,
2013-10-05 14:53:00,70.5,53.0,29.89,North,360,7.0,13.0,54,0.00,,,0.00,weatherlink.com 1.10,2013-10-05 19:53:00,
2013-10-05 15:08:00,70.1,54.0,29.89,NNE,19,4.0,11.0,56,0.00,,,0.00,weatherlink.com 1.10,2013-10-05 20:08:00,
2013-10-05 15:23:00,70.5,53.0,29.89,NE,36,7.0,12.0,54,0.00,,,0.00,weatherlink.com 1.10,2013-10-05 20:23:00,
2013-10-05 15:38:00,70.3,53.0,29.89,North,355,3.0,11.0,55,0.00,,,0.00,weatherlink.com 1.10,2013-10-05 20:38:00,
2013-10-05 15:53:00,70.1,53.0,29.89,North,355,7.0,11.0,54,0.00,,,0.00,weatherlink.com 1.10,2013-10-05 20:53:00,
2013-10-05 16:08:00,69.8,53.0,29.89,North,5,3.0,11.0,55,0.00,,,0.00,weatherlink.com 1.10,2013-10-05 21:08:00,
2013-10-05 16:23:00,69.8,52.0,29.90,NNE,13,8.0,12.0,54,0.00,,,0.00,weatherlink.com 1.10,2013-10-05 21:23:00,
2013-10-05 16:38:00,70.2,51.0,29.90,North,355,6.0,13.0,51,0.00,,,0.00,weatherlink.com 1.10,2013-10-05 21:38:00,
2013-10-05 16:53:00,69.2,51.0,29.91,North,355,7.0,14.0,52,0.00,,,0.00,weatherlink.com 1.10,2013-10-05 21:53:00,
2013-10-05 17:08:00,68.0,51.0,29.91,NNE,30,5.0,10.0,55,0.00,,,0.00,weatherlink.com 1.10,2013-10-05 22:08:00,
2013-10-05 17:23:00,67.0,50.0,29.91,North,5,3.0,14.0,54,0.00,,,0.00,weatherlink.com 1.10,2013-10-05 22:23:00,
2013-10-05 17:38:00,67.2,50.0,29.91,NNE,33,7.0,12.0,55,0.00,,,0.00,weatherlink.com 1.10,2013-10-05 22:38:00,
2013-10-05 17:53:00,66.3,49.0,29.91,North,350,2.0,13.0,54,0.00,,,0.00,weatherlink.com 1.10,2013-10-05 22:53:00,
2013-10-05 18:08:00,65.6,49.0,29.91,NNE,17,4.0,10.0,55,0.00,,,0.00,weatherlink.com 1.10,2013-10-05 23:08:00,
2013-10-05 18:24:00,64.4,48.0,29.92,North,355,2.0,11.0,56,0.00,,,0.00,weatherlink.com 1.10,2013-10-05 23:24:00,
2013-10-05 18:39:00,63.8,48.0,29.93,NNE,12,4.0,11.0,57,0.00,,,0.00,weatherlink.com 1.10,2013-10-05 23:39:00,
2013-10-05 18:54:00,62.7,47.0,29.94,North,360,8.0,13.0,57,0.00,,,0.00,weatherlink.com 1.10,2013-10-05 23:54:00,
2013-10-05 19:09:00,62.2,47.0,29.95,North,355,8.0,15.0,57,0.00,,,0.00,weatherlink.com 1.10,2013-10-06 00:09:00,
2013-10-05 19:24:00,61.7,46.0,29.95,North,360,4.0,10.0,57,0.00,,,0.00,weatherlink.com 1.10,2013-10-06 00:24:00,
2013-10-05 19:39:00,61.4,45.0,29.96,North,5,7.0,12.0,56,0.00,,,0.00,weatherlink.com 1.10,2013-10-06 00:39:00,
2013-10-05 19:54:00,61.4,44.0,29.97,NNE,30,3.0,11.0,54,0.00,,,0.00,weatherlink.com 1.10,2013-10-06 00:54:00,
2013-10-05 20:09:00,61.4,44.0,29.97,NNE,28,2.0,13.0,53,0.00,,,0.00,weatherlink.com 1.10,2013-10-06 01:09:00,
2013-10-05 20:24:00,61.3,44.0,29.98,NNE,20,3.0,11.0,53,0.00,,,0.00,weatherlink.com 1.10,2013-10-06 01:24:00,
2013-10-05 20:39:00,61.2,44.0,29.99,NNE,16,3.0,9.0,53,0.00,,,0.00,weatherlink.com 1.10,2013-10-06 01:39:00,
2013-10-05 20:54:00,61.2,44.0,30.00,North,5,3.0,10.0,53,0.00,,,0.00,weatherlink.com 1.10,2013-10-06 01:54:00,
2013-10-05 21:09:00,60.5,44.0,30.00,North,355,4.0,8.0,55,0.00,,,0.00,weatherlink.com 1.10,2013-10-06 02:09:00,
2013-10-05 21:24:00,60.1,44.0,30.01,North,360,1.0,8.0,56,0.00,,,0.00,weatherlink.com 1.10,2013-10-06 02:24:00,
2013-10-05 21:39:00,60.0,44.0,30.02,NNE,13,3.0,6.0,56,0.00,,,0.00,weatherlink.com 1.10,2013-10-06 02:39:00,
2013-10-05 21:54:00,59.8,45.0,30.02,NNE,32,1.0,6.0,58,0.00,,,0.00,weatherlink.com 1.10,2013-10-06 02:54:00,
2013-10-05 22:09:00,59.8,45.0,30.02,NNE,24,4.0,6.0,58,0.00,,,0.00,weatherlink.com 1.10,2013-10-06 03:09:00,
2013-10-05 22:24:00,59.9,45.0,30.03,NNE,22,0.0,7.0,59,0.00,,,0.00,weatherlink.com 1.10,2013-10-06 03:24:00,
2013-10-05 22:39:00,59.8,45.0,30.03,North,9,2.0,7.0,59,0.00,,,0.00,weatherlink.com 1.10,2013-10-06 03:39:00,
2013-10-05 22:54:00,59.8,46.0,30.04,North,9,3.0,4.0,60,0.00,,,0.00,weatherlink.com 1.10,2013-10-06 03:54:00,
2013-10-05 23:09:00,57.4,50.0,30.03,North,9,1.0,3.0,76,0.12,,,0.12,weatherlink.com 1.10,2013-10-06 04:09:00,
2013-10-05 23:40:00,55.9,51.0,30.02,North,9,0.0,3.0,83,0.13,,,0.13,weatherlink.com 1.10,2013-10-06 04:40:00,
2013-10-05 23:55:00,55.8,51.0,30.01,North,9,0.0,3.0,85,0.13,,,0.13,weatherlink.com 1.10,2013-10-06 04:55:00,